Weather Roundup
Issued by NWS Chicago, IL

Home | Current Version | Previous Version | Graphics & Text | Print | Product List | Glossary On
Versions: 1 2 3 4 5 6 7 8 9 10 11 12 13 14 15 16 17 18 19 20 21 22 23 24 25 26 27 28 29 30 31 32 33 34 35 36 37 38 39 40 41 42 43 44 45 46 47 48 49 50
000
NZUS59 KLOT 250121
HRRLOT

CHICAGO AREA WEATHER ROUNDUP
NATIONAL WEATHER SERVICE CHICAGO/ROMEOVILLE IL
800 PM CDT SUN MAY 24 2015

NOTE: "FAIR" INDICATES FEW OR NO CLOUDS BELOW 12,000 FEET WITH NO
SIGNIFICANT WEATHER AND/OR OBSTRUCTIONS TO VISIBILITY.

* THESE STATIONS ARE NOT UNDER NWS QUALITY CONTROL. THEY ALSO MAY NOT
  REPORT WEATHER SUCH AS PRECIPITATION OR FOG.

ILZ005-006-012>014-019>023-250200-
NORTHEAST ILLINOIS

CITY           SKY/WX    TMP DP  RH WIND       PRES   REMARKS
OHARE          MOCLDY    64  61  90 E7        29.93S
MIDWAY         MOCLDY    66  63  90 E6        29.94R
AURORA         PTCLDY    71  64  78 E10       29.91S
LANSING*       MOCLDY    77  58  51 S12       29.95R
JOLIET*        MOCLDY    75  66  73 SE5       29.91F
WAUKEGAN       MOCLDY    55  54  96 E5        29.94F FOG
DUPAGE AIRPORT PTCLDY    66  64  93 E7        29.92S FOG
WHEELING       MOCLDY    61  59  93 SE6       29.95S FOG
KANKAKEE*      MOCLDY    78  62  57 S12G20    29.95S HX  80
MORRIS*        MOCLDY    76  64  67 S10       29.90S
LEWIS AIRPORT* MOCLDY    69  67  93 E6        29.92F
NORTHERLY IS     N/A     59  56  89 NE1         N/A
$$

WIZ051-052-058>065-066-070>072-250200-
SOUTHEAST WISCONSIN

CITY           SKY/WX    TMP DP  RH WIND       PRES   REMARKS
MILWAUKEE      CLOUDY    54  50  86 SE6       29.96F
KENOSHA*       CLOUDY    56  53  90 E8        29.95F
RACINE*        CLOUDY    53  48  83 E6        29.96F
BURLINGTON     LGT RAIN  58  55  90 E7        29.94S
WAUKESHA       CLOUDY    54  52  94 E9        29.96F
WEST BEND      LGT RAIN  55  54  94 E8        29.97F
$$

INZ001>003-010>013-019-020-250200-
NORTHWEST INDIANA

CITY           SKY/WX    TMP DP  RH WIND       PRES   REMARKS
GARY*          MOCLDY    68  63  83 S10       29.95F
MICHIGAN CITY* NOT AVBL
RENSSELAER*    NOT AVBL
VALPARAISO     CLOUDY    79  58  48 S12       29.98R HX  80
$$

LMZ740>746-250200-
SOUTHERN LAKE MICHIGAN

STATION/POSITION TIME  SKY/WX   TEMP WIND        PRES    VSBY
                                AIR  DIR/SP/G
                 (UTC)          (F)  (DEG/KT/KT) (MB)    (MI)
HARRISON CRIB    0100            58   80/ 12/ 13   N/A
BURNHAM HARBOR   0100            59   10/  1/  3   N/A
CALUMET HARBOR   0000            59   60/  3/  4   N/A
BURNS HARBOR     0000            80  190/ 10/ 16 1014.6
MICHIGAN CITY    0100            80  150/ 14/ 19   N/A
$$

ABBREVIATIONS USED IN REMARKS
   TC - TEMPERATURE IN CELSIUS
  WCI - WIND CHILL INDEX
   HX - HEAT INDEX
  VSB - VISIBILITY
$$


USA.gov is the U.S. government's official web portal to all federal, state and local government web resources and services.